Tracking 23752 objects as of 23-Oct-2021
HD Live streaming from Space Station
objects crossing your sky now

CZ-4B R/B

Track CZ-4B R/B now!
10-day predictions


NORAD ID: 46481
Int'l Code: 2020-067D
Perigee: 433.1 km
Apogee: 656.2 km
Inclination: 97.9 °
Period: 95.4 minutes
Semi major axis: 6915 km
RCS: Unknown
Launch date: September 27, 2020
Source: People's Republic of China (PRC)
Launch site: Taiyaun Space Center, China (TSC)

Note: This is a ROCKET BODY
aabbcc
Your satellite tracking list
Your tracking list is empty




NASA's NSSDC Master Catalog

Two Line Element Set (TLE):
1 46481U 20067D   21295.72406980  .00002355  00000-0  11167-3 0  9997
2 46481  97.9400  30.7995 0161316 132.1147 229.3925 15.09574766 58908
Source of the keplerian elements: AFSPC